CZ-4B R/B

Satellite information

Favourite Embed

Satellite Type and Status

ROCKET BODYIN ORBIT

Key statistics

Satellite CZ-4B R/B at a glance.

Uptime

2285

Days in orbit

Revolutions

≈ 15.1

Per day

Orbit

SSO

Sun Synchronous Orbit

Inclination

98.7

Latest

Satellite identification and parameters

Extended collection of information and parameters for CZ-4B R/B.

Object identification

Identified? True

Debris? False

Object name: CZ-4B R/B

International designator: 2019-059D

Object number (NORAD): 44531

Object ID (CCSDS): 44531

Country: PEOPLES REPUBLIC OF CHINA (PRC)

Current information (Y/N): Y

RCS size: LARGE

Orbital parameters

Period: 95.241 minutes

Inclination: 98.7221 deg

SMA: 6908.387 km

Apoapsis: 627.619 km

Periapsis: 432.885 km

RAAN: 348.263 deg

Eccentricy: 0.01409398

Argument of periapsis: 138.1486 deg

Mean anomaly: 223.062 deg

Mean motion: 15.11951169 rev/day

Mean motion (dot): 0.00007825 rev/day2

B* drag term: 0.00036245453 1/REarth

Two-line elements (TLE)

Creation date: Dec. 14, 2025, 3:07 a.m.

Reference frame: TEME

Reference center: EARTH

Epoch: Dec. 13, 2025, 1:29 p.m. UTC

TLE line 0: 0 CZ-4B R/B

TLE line 1: 1 44531U 19059D 25347.56184488 .00007825 00000-0 36245-3 0 9991

TLE line 2: 2 44531 98.7221 348.2630 0140940 138.1486 223.0620 15.11951169341667

Live tracking on map

Real-time ground track for satellite CZ-4B R/B.

In-orbit conjunctions

A list of the most updated potential collisions computed for object CZ-4B R/B.

Target Orbit TCA Probability of collision Miss distance Type
OBJECT P SSO 2025-10-13 00:02:27 0.0005850722 729.0 (m) UNKNOWN
CZ-6A DEB LEO 2025-01-07 16:06:00 0.0006484643 371.0 (m) DEBRIS

Associated space launch

CZ-4B R/B was lifted into orbit during the mission ‘Long March 4B | Ziyuan-2D, Tianyi MV-1, BNU-1’, on board a Long March 4B space rocket.

The launch took place on Sept. 12, 2019, 3:26 a.m. from Launch Complex 9.

For more information about the launch, click the button.

Launch to space Long March 4B | Ziyuan-2D, Tianyi MV-1, BNU-1
Long March 4B | Ziyuan-2D, Tianyi MV-1, BNU-1

Agency: N/A

Status: Launch Successful

Launch date: Sept. 12, 2019, 3:26 a.m. UTC

Rocket: Long March 4B

Launch pad: Launch Complex 9

Location: Taiyuan Satellite Launch Center, People's Republic of China

...

Latest news about this satellite

News about space launch
China returns Long March 4 to service with Ziyuan launch


Newsletter sign-up

Weekly statistics, charts and insights to help you stay on top of the space industry.